Wheeler AAF, HI

8:54 AM HST on June 26, 2017 (GMT -1000)
Wheeler Army Air Field

Weather History for PHHI - April, 2014

Change the Weather History Date:

Sunday, April 13, 2014

  Actual Average Record
Temperature  
Mean Temperature 70 °F -  
Max Temperature 72 °F 76 °F 83 °F (2017)
Min Temperature 68 °F 62 °F 59 °F (2011)
Cooling Degree Days 5    
Growing Degree Days 20 (Base 50)    
Moisture  
Dew Point 62 °F    
Average Humidity 76    
Maximum Humidity 88    
Minimum Humidity 66    
Precipitation  
Precipitation 0.28 in - - ()
Sea Level Pressure  
Sea Level Pressure 30.14 in    
Wind  
Wind Speed 11 mph (ENE)    
Max Wind Speed 17 mph    
Max Gust Speed 28 mph    
Visibility 8 miles    
Events Rain    
Averages and records for this station are not official NWS values.
T = Trace of Precipitation, MM = Missing Value Source: NWS Daily Summary

Daily Weather History Graph

Daily Weather History Graph

Search for Another Location

Airport or City:

Trip Planner

Search our weather history database for the weather conditions in past years. The results will help you decide how hot, cold, wet, or windy it might be!

Date:

Astronomy

Apr. 13, 2014 Rise Set
Actual Time 6:14 AM HST 6:51 PM HST
Civil Twilight 5:51 AM HST 7:13 PM HST
Nautical Twilight 5:25 AM HST 7:40 PM HST
Astronomical Twilight 4:58 AM HST 8:07 PM HST
Moon 5:47 PM HST (4/13) 5:08 AM HST (4/13)
Length of Visible Light 13h 21m
Length of Day
12h 36m
Waxing Gibbous, 98% of the Moon is Illuminated
Apr 13
Waxing Gibbous
Apr 14
Full
Apr 21
Last Quarter
Apr 28
New
May 6
First Quarter

Hourly Weather History & Observations

Time (HST) Temp. Dew Point Humidity Pressure Visibility Wind Dir Wind Speed Gust Speed Precip Events Conditions
12:58 AM 68.5 °F 59.4 °F 72% 30.11 in 10.0 mi NNE 10.4 mph - N/A   Overcast
1:18 AM 68.0 °F 59.0 °F 73% 30.12 in 10.0 mi NNE 9.2 mph - N/A   Mostly Cloudy
1:58 AM 68.4 °F 57.0 °F 67% 30.09 in 10.0 mi NNE 8.1 mph 25.3 mph N/A   Scattered Clouds
2:34 AM 68.0 °F 57.2 °F 68% 30.10 in 10.0 mi ENE 12.7 mph 27.6 mph N/A   Mostly Cloudy
2:58 AM 68.2 °F 57.9 °F 70% 30.08 in 10.0 mi NE 11.5 mph 19.6 mph N/A   Scattered Clouds
3:00 AM 68.0 °F 57.2 °F 68% 30.09 in 10.0 mi North 12.7 mph 20.7 mph N/A   Scattered Clouds
3:58 AM 68.5 °F 57.7 °F 68% 30.07 in 10.0 mi ENE 12.7 mph 20.7 mph N/A   Mostly Cloudy
4:58 AM 68.7 °F 58.3 °F 69% 30.07 in 10.0 mi Variable 4.6 mph 17.3 mph N/A   Mostly Cloudy
5:58 AM 68.9 °F 58.1 °F 68% 30.09 in 10.0 mi Variable 2.3 mph - N/A   Overcast
6:03 AM 69.8 °F 59.0 °F 68% 30.11 in 10.0 mi Variable 1.2 mph - N/A   Overcast
6:58 AM 68.9 °F 60.3 °F 74% 30.12 in 10.0 mi NE 8.1 mph - N/A   Mostly Cloudy
7:55 AM 69.8 °F 60.8 °F 73% 30.16 in 10.0 mi NE 12.7 mph - N/A   Light Drizzle
7:58 AM 69.8 °F 60.8 °F 73% 30.14 in 10.0 mi NE 15.0 mph 20.7 mph 0.00 in   Light Drizzle
8:03 AM 69.8 °F 60.8 °F 73% 30.16 in 10.0 mi NE 13.8 mph 20.7 mph N/A   Light Drizzle
8:05 AM 69.8 °F 60.8 °F 73% 30.17 in 10.0 mi NE 15.0 mph 20.7 mph N/A   Mostly Cloudy
8:15 AM 69.8 °F 60.8 °F 73% 30.17 in 10.0 mi ENE 11.5 mph - N/A   Overcast
8:25 AM 69.8 °F 60.8 °F 73% 30.17 in 10.0 mi Variable 6.9 mph - N/A   Mostly Cloudy
8:30 AM 71.6 °F 60.8 °F 69% 30.17 in 10.0 mi NNE 11.5 mph - N/A   Mostly Cloudy
8:35 AM 71.6 °F 62.6 °F 73% 30.17 in 10.0 mi NE 12.7 mph - N/A   Mostly Cloudy
8:40 AM 71.6 °F 62.6 °F 73% 30.17 in 10.0 mi NNE 15.0 mph - N/A   Mostly Cloudy
8:45 AM 69.8 °F 62.6 °F 78% 30.18 in 10.0 mi NE 15.0 mph - N/A   Mostly Cloudy
8:48 AM 69.8 °F 62.6 °F 78% 30.18 in 10.0 mi NE 13.8 mph - N/A   Light Drizzle
8:53 AM 69.8 °F 62.6 °F 78% 30.18 in 9.0 mi NE 10.4 mph - N/A Rain Light Rain
8:58 AM 70.2 °F 63.7 °F 80% 30.16 in 8.0 mi ENE 12.7 mph - 0.00 in Rain Light Rain
9:03 AM 69.8 °F 62.6 °F 78% 30.18 in 9.0 mi ENE 10.4 mph - N/A Rain Light Rain
9:06 AM 69.8 °F 62.6 °F 78% 30.18 in 10.0 mi ENE 10.4 mph 19.6 mph N/A   Mostly Cloudy
9:15 AM 69.8 °F 62.6 °F 78% 30.18 in 10.0 mi East 13.8 mph 19.6 mph N/A   Light Drizzle
9:24 AM 71.6 °F 62.6 °F 73% 30.18 in 10.0 mi NE 15.0 mph 18.4 mph N/A   Mostly Cloudy
9:29 AM 71.6 °F 62.6 °F 73% 30.18 in 10.0 mi NE 17.3 mph 24.2 mph N/A   Light Drizzle
9:38 AM 71.6 °F 62.6 °F 73% 30.18 in 10.0 mi NE 16.1 mph - N/A   Scattered Clouds
9:47 AM 71.6 °F 62.6 °F 73% 30.18 in 10.0 mi NE 12.7 mph 21.9 mph N/A   Light Drizzle
9:58 AM 71.6 °F 62.8 °F 74% 30.16 in 10.0 mi NE 15.0 mph 20.7 mph 0.00 in   Light Drizzle
10:58 AM 69.8 °F 64.4 °F 83% 30.16 in 6.0 mi ENE 12.7 mph - 0.01 in Rain Light Rain
11:33 AM 69.8 °F 64.4 °F 83% 30.18 in 4.0 mi ENE 9.2 mph - N/A Rain Light Rain
11:43 AM 68.0 °F 64.4 °F 88% 30.18 in 3.0 mi East 9.2 mph - N/A Rain Rain
11:58 AM 69.1 °F 64.4 °F 85% 30.15 in 6.0 mi East 6.9 mph - 0.08 in Rain Light Rain
12:23 PM 69.8 °F 64.4 °F 83% 30.15 in 3.0 mi ENE 9.2 mph - N/A Rain Light Rain
12:33 PM 71.6 °F 64.4 °F 78% 30.15 in 6.0 mi East 9.2 mph - N/A Rain Light Rain
12:38 PM 71.6 °F 64.4 °F 78% 30.15 in 5.0 mi ENE 10.4 mph - N/A Rain Light Rain
12:43 PM 69.8 °F 64.4 °F 83% 30.14 in 5.0 mi ENE 12.7 mph - N/A Rain Light Rain
12:48 PM 71.6 °F 64.4 °F 78% 30.14 in 3.0 mi NE 12.7 mph - N/A Rain Light Rain
12:53 PM 69.8 °F 64.4 °F 83% 30.14 in 2.5 mi ENE 11.5 mph - N/A Rain Light Rain
12:58 PM 69.8 °F 64.4 °F 83% 30.12 in 3.0 mi NE 10.4 mph - 0.08 in Rain Rain
1:13 PM 69.8 °F 64.4 °F 83% 30.14 in 2.5 mi ENE 13.8 mph - N/A Rain Heavy Rain
1:18 PM 69.8 °F 64.4 °F 83% 30.14 in 3.0 mi ENE 10.4 mph - N/A Rain Light Rain
1:58 PM 70.2 °F 65.3 °F 85% 30.11 in 4.0 mi NE 10.4 mph - 0.06 in Rain Light Rain
2:23 PM 71.6 °F 64.4 °F 78% 30.12 in 5.0 mi ENE 13.8 mph - N/A Rain Heavy Rain
2:28 PM 71.6 °F 66.2 °F 83% 30.12 in 4.0 mi ENE 16.1 mph - N/A Rain Light Rain
2:53 PM 71.6 °F 64.4 °F 78% 30.11 in 7.0 mi ENE 12.7 mph - N/A Rain Light Rain
2:58 PM 72.0 °F 65.5 °F 80% 30.09 in 8.0 mi ENE 13.8 mph - 0.03 in Rain Light Rain
3:03 PM 71.6 °F 64.4 °F 78% 30.11 in 6.0 mi ENE 11.5 mph - N/A Rain Rain
3:13 PM 71.6 °F 64.4 °F 78% 30.11 in 5.0 mi ENE 10.4 mph - N/A Rain Light Rain
3:58 PM 71.8 °F 65.1 °F 79% 30.09 in 10.0 mi East 15.0 mph - 0.01 in   Light Drizzle
4:58 PM 70.9 °F 63.7 °F 78% 30.08 in 10.0 mi ENE 9.2 mph - 0.01 in Rain Light Rain
5:07 PM 71.6 °F 64.4 °F 78% 30.11 in 10.0 mi ENE 15.0 mph 20.7 mph N/A   Partly Cloudy
5:10 PM 71.6 °F 64.4 °F 78% 30.11 in 10.0 mi NE 15.0 mph 20.7 mph N/A   Light Drizzle
5:34 PM 71.6 °F 62.6 °F 73% 30.12 in 10.0 mi ENE 11.5 mph - N/A   Partly Cloudy
5:40 PM 71.6 °F 62.6 °F 73% 30.12 in 10.0 mi ENE 8.1 mph - N/A   Light Drizzle
5:51 PM 71.6 °F 62.6 °F 73% 30.12 in 10.0 mi ENE 8.1 mph - N/A   Partly Cloudy
5:54 PM 71.6 °F 62.6 °F 73% 30.12 in 10.0 mi ENE 10.4 mph - N/A   Light Drizzle
5:58 PM 70.9 °F 62.6 °F 75% 30.10 in 10.0 mi East 9.2 mph - 0.00 in   Light Drizzle
6:04 PM 71.6 °F 62.6 °F 73% 30.12 in 10.0 mi ENE 9.2 mph - N/A   Scattered Clouds
6:58 PM 69.3 °F 61.2 °F 75% 30.11 in 10.0 mi ENE 10.4 mph - 0.00 in   Mostly Cloudy
7:58 PM 68.9 °F 59.7 °F 72% 30.12 in 10.0 mi NE 9.2 mph - N/A   Mostly Cloudy
8:58 PM 68.5 °F 58.8 °F 71% 30.15 in 10.0 mi NE 8.1 mph - N/A   Overcast
9:58 PM 68.5 °F 57.7 °F 68% 30.16 in 10.0 mi Variable 2.3 mph - N/A   Overcast
10:58 PM 68.7 °F 58.3 °F 69% 30.18 in 10.0 mi Variable 5.8 mph - N/A   Mostly Cloudy
11:58 PM 68.0 °F 56.3 °F 66% 30.18 in 10.0 mi Variable 3.5 mph - N/A   Mostly Cloudy